Home > Weather > Lakewood > Past weeks

Flag for U.S.A. Weather for the Past 2 Weeks in Lakewood, Colorado, U.S.A.

Now
38 °F

Passing clouds.


Feels Like: 28 °F
Forecast: 23 / 41 °F
Wind: 17 mph from Northwest

Location: Centennial Airport

Current Time: Feb 7, 2016 at 6:22:31 AM

Latest Report: Feb 7, 2016 at 5:53 AM


Visibility: 10 mi

Pressure: 30.18 "Hg (24.51 "Hg at 1683m altitude)

Humidity: 36%

Dew point: 13 °F

Location of LakewoodLocation

Historic Weather in Lakewood — Graph

°F

Lakewood Temperature Yesterday

Maximum temperature yesterday: 50 °F (at 3:53 PM)
Minimum temperature yesterday: 16 °F (at 1:53 AM)
Average temperature yesterday: 36 °F

High & Low Weather Summary for the Past Weeks

 TemperatureHumidityPressure
High64 °F (Jan 30, 1:53 PM)96% (Jan 30, 11:53 PM)30.46 "Hg (Jan 30, 11:53 PM)
Low2 °F (Feb 3, 5:53 AM)16% (Jan 29, 2:53 PM)29.37 "Hg (Jan 30, 1:53 PM)
Average32 °F56%30.02 "Hg
* Reported Jan 23 4:53 AM — Feb 7 4:53 AM, Lakewood, Weather by CustomWeather, © 2016

Note: Actual official high and low records may vary slightly from our data, if they occured in-between our weather recording intervals... More about our weather records

Advertising

Lakewood Weather History for the Previous 24 Hours

 ConditionsComfort  
Time TempWeatherWind HumidityBarometerVisibility
4:53 AM
Sun, Feb 7
37 °FPassing clouds.18 mph36%30.16 "Hg10 mi
3:53 AM39 °FPassing clouds.7 mph28%30.13 "Hg10 mi
2:53 AM41 °FPassing clouds.6 mph23%30.10 "Hg10 mi
1:53 AM42 °FPartly cloudy.10 mph25%30.09 "Hg10 mi
12:53 AM46 °FPartly cloudy.22 mph18%30.09 "Hg10 mi
11:53 PM
Sat, Feb 6
46 °FPartly cloudy.15 mph19%30.09 "Hg10 mi
10:53 PM39 °FPassing clouds.3 mph34%30.13 "Hg10 mi
9:53 PM33 °FPartly cloudy.9 mph54%30.20 "Hg10 mi
8:53 PM41 °FPassing clouds.5 mph35%30.17 "Hg10 mi
7:53 PM43 °FPassing clouds.12 mph32%30.18 "Hg10 mi
6:53 PM45 °FPartly cloudy.6 mph28%30.16 "Hg10 mi
5:53 PM44 °FPartly cloudy.14 mph35%30.16 "Hg10 mi
4:53 PM47 °FPartly sunny.7 mph30%30.15 "Hg10 mi
3:53 PM50 °FPartly sunny.14 mph27%30.15 "Hg10 mi
2:53 PM48 °FPartly sunny.7 mph30%30.16 "Hg10 mi
1:53 PM47 °FBroken clouds.12 mph28%30.21 "Hg10 mi
12:53 PM46 °FBroken clouds.8 mph29%30.21 "Hg10 mi
11:53 AM42 °FBroken clouds.8 mph39%30.25 "Hg10 mi
10:53 AM42 °FPartly sunny.10 mph38%30.28 "Hg10 mi
9:53 AM35 °FPartly sunny.7 mph46%30.30 "Hg10 mi
8:53 AM33 °FPartly sunny.10 mph43%30.34 "Hg10 mi
7:53 AM25 °FScattered clouds.5 mph48%30.36 "Hg10 mi
6:53 AM28 °FPassing clouds.6 mph39%30.34 "Hg10 mi
Weather by CustomWeather, © 2016

See weather overviewHow to use our weather pages